When you browse on this site, cookies collect data to enhance your experience and personalize the content and advertising you see.
Visit our Privacy Policy to learn more. By continuing to use the site, you agree to this use of cookies and data.

Stündliche Wetter Qala i Naw

Heute, 7 August, Freitag

Zeit Temperatur Niederschläge Wind Luftdruck Luftfeuchtigkeit
00:00 +23°C° 0 mm 1 m/S 677 mmHg 32%
01:00 +22°C° 0 mm 1 m/S 677 mmHg 33%
02:00 +21°C° 0 mm 1 m/S 677 mmHg 36%
03:00 +21°C° 0 mm 1 m/S 677 mmHg 38%
04:00 +20°C° 0 mm 1 m/S 677 mmHg 39%
05:00 +22°C° 0 mm 1 m/S 678 mmHg 35%
06:00 +24°C° 0 mm 1 m/S 679 mmHg 30%
07:00 +26°C° 0 mm 1 m/S 679 mmHg 25%
08:00 +28°C° 0 mm 2 m/S 679 mmHg 23%
09:00 +29°C° 0 mm 3 m/S 679 mmHg 21%
10:00 +32°C° 0 mm 4 m/S 679 mmHg 19%
11:00 +34°C° 0 mm 5 m/S 679 mmHg 17%
12:00 +35°C° 0 mm 5 m/S 679 mmHg 15%
13:00 +38°C° 0 mm 6 m/S 679 mmHg 14%
14:00 +38°C° 0 mm 7 m/S 679 mmHg 13%
15:00 +39°C° 0 mm 7 m/S 679 mmHg 13%
16:00 +39°C° 0 mm 8 m/S 679 mmHg 13%
17:00 +36°C° 0 mm 7 m/S 679 mmHg 15%
18:00 +34°C° 0 mm 7 m/S 679 mmHg 18%
19:00 +30°C° 0 mm 7 m/S 679 mmHg 20%
20:00 +29°C° 0 mm 6 m/S 679 mmHg 23%
21:00 +27°C° 0 mm 4 m/S 679 mmHg 26%
22:00 +26°C° 0 mm 3 m/S 679 mmHg 29%
23:00 +25°C° 0 mm 3 m/S 678 mmHg 32%

Morgen, 8 August, Samstag

Zeit Temperatur Niederschläge Wind Luftdruck Luftfeuchtigkeit
00:00 +24°C° 0 mm 3 m/S 678 mmHg 35%
01:00 +23°C° 0 mm 2 m/S 678 mmHg 38%
02:00 +21°C° 0 mm 2 m/S 678 mmHg 42%
03:00 +20°C° 0 mm 2 m/S 677 mmHg 46%
04:00 +19°C° 0 mm 2 m/S 677 mmHg 50%
05:00 +21°C° 0 mm 3 m/S 678 mmHg 46%
06:00 +22°C° 0 mm 3 m/S 678 mmHg 43%
07:00 +24°C° 0 mm 3 m/S 679 mmHg 39%
08:00 +26°C° 0 mm 3 m/S 679 mmHg 36%
09:00 +28°C° 0 mm 4 m/S 679 mmHg 32%
10:00 +29°C° 0 mm 4 m/S 679 mmHg 28%
11:00 +32°C° 0 mm 5 m/S 679 mmHg 26%
12:00 +33°C° 0 mm 6 m/S 678 mmHg 24%
13:00 +35°C° 0 mm 6 m/S 678 mmHg 21%
14:00 +35°C° 0 mm 7 m/S 678 mmHg 21%
15:00 +35°C° 0 mm 7 m/S 677 mmHg 20%
16:00 +36°C° 0 mm 7 m/S 677 mmHg 20%
17:00 +34°C° 0 mm 6 m/S 677 mmHg 22%
18:00 +32°C° 0 mm 6 m/S 677 mmHg 25%
19:00 +29°C° 0 mm 5 m/S 677 mmHg 27%
20:00 +28°C° 0 mm 4 m/S 677 mmHg 30%
21:00 +26°C° 0 mm 3 m/S 677 mmHg 33%
22:00 +24°C° 0 mm 3 m/S 677 mmHg 36%
23:00 +23°C° 0 mm 2 m/S 677 mmHg 38%

übermorgen, 9 August, Sonntag

Zeit Temperatur Niederschläge Wind Luftdruck Luftfeuchtigkeit
00:00 +21°C° 0 mm 2 m/S 677 mmHg 41%
01:00 +20°C° 0 mm 2 m/S 677 mmHg 43%
02:00 +21°C° 0 mm 1 m/S 677 mmHg 45%
03:00 +20°C° 0 mm 1 m/S 676 mmHg 48%
04:00 +19°C° 0 mm 1 m/S 676 mmHg 50%
05:00 +21°C° 0 mm 1 m/S 677 mmHg 45%
06:00 +23°C° 0 mm 1 m/S 677 mmHg 39%
07:00 +23°C° 0 mm 0 m/S 678 mmHg 34%
08:00 +26°C° 0 mm 1 m/S 678 mmHg 31%
09:00 +28°C° 0 mm 2 m/S 678 mmHg 27%
10:00 +30°C° 0 mm 3 m/S 678 mmHg 24%
11:00 +33°C° 0 mm 4 m/S 678 mmHg 22%
12:00 +34°C° 0 mm 6 m/S 678 mmHg 19%
13:00 +36°C° 0 mm 7 m/S 678 mmHg 17%
14:00 +36°C° 0 mm 7 m/S 677 mmHg 16%
15:00 +37°C° 0 mm 8 m/S 677 mmHg 15%
16:00 +37°C° 0 mm 8 m/S 676 mmHg 15%
17:00 +34°C° 0 mm 7 m/S 676 mmHg 17%
18:00 +32°C° 0 mm 6 m/S 676 mmHg 20%
19:00 +29°C° 0 mm 5 m/S 676 mmHg 22%
20:00 +27°C° 0 mm 4 m/S 676 mmHg 25%
21:00 +26°C° 0 mm 3 m/S 676 mmHg 27%
22:00 +24°C° 0 mm 2 m/S 676 mmHg 30%
23:00 +23°C° 0 mm 2 m/S 676 mmHg 33%

10 August, Montag

Zeit Temperatur Niederschläge Wind Luftdruck Luftfeuchtigkeit
00:00 +22°C° 0 mm 1 m/S 675 mmHg 36%
01:00 +20°C° 0 mm 1 m/S 675 mmHg 39%
02:00 +20°C° 0 mm 1 m/S 675 mmHg 41%
03:00 +19°C° 0 mm 1 m/S 675 mmHg 43%
04:00 +19°C° 0 mm 1 m/S 675 mmHg 45%
05:00 +21°C° 0 mm 1 m/S 675 mmHg 39%
06:00 +24°C° 0 mm 1 m/S 676 mmHg 32%
07:00 +26°C° 0 mm 1 m/S 677 mmHg 26%
08:00 +28°C° 0 mm 2 m/S 677 mmHg 23%
09:00 +30°C° 0 mm 3 m/S 677 mmHg 20%
10:00 +33°C° 0 mm 4 m/S 677 mmHg 18%
11:00 +34°C° 0 mm 5 m/S 677 mmHg 16%
12:00 +36°C° 0 mm 7 m/S 677 mmHg 14%
13:00 +38°C° 0 mm 8 m/S 677 mmHg 12%
14:00 +38°C° 0 mm 8 m/S 677 mmHg 12%
15:00 +39°C° 0 mm 9 m/S 677 mmHg 12%
16:00 +39°C° 0 mm 9 m/S 677 mmHg 12%
17:00 +37°C° 0 mm 8 m/S 677 mmHg 14%
18:00 +34°C° 0 mm 7 m/S 677 mmHg 16%
19:00 +32°C° 0 mm 6 m/S 677 mmHg 19%
20:00 +29°C° 0 mm 5 m/S 677 mmHg 21%
21:00 +27°C° 0 mm 4 m/S 677 mmHg 23%
22:00 +26°C° 0 mm 3 m/S 677 mmHg 25%
23:00 +24°C° 0 mm 2 m/S 676 mmHg 28%

11 August, Dienstag

Zeit Temperatur Niederschläge Wind Luftdruck Luftfeuchtigkeit
00:00 +23°C° 0 mm 1 m/S 676 mmHg 32%
01:00 +21°C° 0 mm 1 m/S 676 mmHg 35%
02:00 +20°C° 0 mm 1 m/S 676 mmHg 37%
03:00 +20°C° 0 mm 1 m/S 675 mmHg 38%
04:00 +17°C° 0 mm 0 m/S 675 mmHg 40%
05:00 +22°C° 0 mm 1 m/S 676 mmHg 34%
06:00 +25°C° 0 mm 1 m/S 677 mmHg 28%
07:00 +27°C° 0 mm 1 m/S 678 mmHg 22%
08:00 +29°C° 0 mm 2 m/S 678 mmHg 20%
09:00 +31°C° 0 mm 3 m/S 678 mmHg 18%
10:00 +34°C° 0 mm 4 m/S 678 mmHg 15%
11:00 +36°C° 0 mm 6 m/S 678 mmHg 14%
12:00 +38°C° 0 mm 8 m/S 678 mmHg 13%
13:00 +39°C° 0 mm 9 m/S 678 mmHg 11%
14:00 +39°C° 0 mm 10 m/S 678 mmHg 12%
15:00 +39°C° 0 mm 10 m/S 677 mmHg 12%
16:00 +39°C° 0 mm 11 m/S 677 mmHg 12%
17:00 +37°C° 0 mm 9 m/S 677 mmHg 14%
18:00 +33°C° 0 mm 7 m/S 677 mmHg 15%
19:00 +30°C° 0 mm 5 m/S 677 mmHg 17%
20:00 +28°C° 0 mm 4 m/S 677 mmHg 19%
21:00 +26°C° 0 mm 3 m/S 677 mmHg 21%
22:00 +24°C° 0 mm 2 m/S 677 mmHg 23%
23:00 +23°C° 0 mm 2 m/S 677 mmHg 25%

12 August, Mittwoch

Zeit Temperatur Niederschläge Wind Luftdruck Luftfeuchtigkeit
00:00 +22°C° 0 mm 1 m/S 676 mmHg 27%
01:00 +21°C° 0 mm 1 m/S 676 mmHg 29%
02:00 +20°C° 0 mm 1 m/S 676 mmHg 31%
03:00 +20°C° 0 mm 1 m/S 676 mmHg 33%
04:00 +19°C° 0 mm 1 m/S 675 mmHg 36%
05:00 +22°C° 0 mm 1 m/S 676 mmHg 30%
06:00 +25°C° 0 mm 1 m/S 677 mmHg 25%
07:00 +27°C° 0 mm 1 m/S 678 mmHg 20%
08:00 +30°C° 0 mm 2 m/S 678 mmHg 18%
09:00 +33°C° 0 mm 3 m/S 678 mmHg 15%
10:00 +35°C° 0 mm 4 m/S 678 mmHg 13%
11:00 +36°C° 0 mm 5 m/S 678 mmHg 12%
12:00 +39°C° 0 mm 6 m/S 678 mmHg 10%
13:00 +41°C° 0 mm 8 m/S 678 mmHg 9%
14:00 +42°C° 0 mm 9 m/S 678 mmHg 9%
15:00 +40°C° 0 mm 9 m/S 677 mmHg 9%
16:00 +40°C° 0 mm 10 m/S 677 mmHg 9%
17:00 +37°C° 0 mm 8 m/S 677 mmHg 12%
18:00 +34°C° 0 mm 7 m/S 677 mmHg 14%
19:00 +30°C° 0 mm 5 m/S 676 mmHg 17%
20:00 +28°C° 0 mm 4 m/S 676 mmHg 20%
21:00 +26°C° 0 mm 3 m/S 676 mmHg 23%
22:00 +24°C° 0 mm 1 m/S 676 mmHg 26%
23:00 +23°C° 0 mm 1 m/S 676 mmHg 26%
Mehr zeigen